Change the Weather History Date:

Sunday, February 9, 2014

  Actual Average (KGAF) Record (KGAF)
Temperature  
Mean Temperature -9 °F -  
Max Temperature -2 °F 21 °F 48 °F (1977)
Min Temperature -16 °F 0 °F -33 °F (1959)
Degree Days  
Heating Degree Days 74    
Moisture  
Dew Point -16 °F    
Average Humidity 71    
Maximum Humidity 84    
Minimum Humidity 60    
Precipitation  
Precipitation 0.00 in - - ()
Sea Level Pressure  
Sea Level Pressure 30.36 in    
Wind  
Wind Speed 8 mph (NW)    
Max Wind Speed 15 mph    
Max Gust Speed 17 mph    
Visibility 10 miles    
Events      
Averages and records for this station are not official NWS values.
T = Trace of Precipitation, MM = Missing Value Source: NWS Daily Summary

Daily Weather History Graph

Daily Weather History Graph

Search for Another Location

Airport or City:

Trip Planner

Search our weather history database for the weather conditions in past years. The results will help you decide how hot, cold, wet, or windy it might be!

Date:

Astronomy

Feb. 09, 2014 Rise Set
Actual Time 7:48 AM CST 5:41 PM CST
Civil Twilight 7:15 AM CST 6:14 PM CST
Nautical Twilight 6:38 AM CST 6:52 PM CST
Astronomical Twilight 6:01 AM CST 7:28 PM CST
Moon 1:13 PM CST (2/9) 4:03 AM CST (2/9)
Length of Visible Light 10h 59m
Length of Day
9h 53m
Waxing Gibbous, 77% of the Moon is Illuminated
Feb 9
Waxing Gibbous
Feb 14
Full
Feb 22
Last Quarter
Mar 1
New
Mar 8
First Quarter

Hourly Weather History & Observations

Time (CST) Temp. Windchill Dew Point Humidity Pressure Visibility Wind Dir Wind Speed Gust Speed Precip Events Conditions
12:15 AM -11.2 °F -27.8 °F -16.6 °F 77% 30.31 in 10.0 mi WNW 8.1 mph - N/A   Clear
12:35 AM -11.2 °F -26.4 °F -16.6 °F 77% 30.31 in 10.0 mi West 6.9 mph - N/A   Clear
12:55 AM -11.2 °F -26.4 °F -16.6 °F 77% 30.30 in 10.0 mi WNW 6.9 mph - N/A   Clear
1:15 AM -11.2 °F -27.8 °F -16.6 °F 77% 30.30 in 10.0 mi WNW 8.1 mph - N/A   Clear
1:35 AM -9.4 °F -20.9 °F -13.0 °F 84% 30.30 in 10.0 mi NNW 4.6 mph - N/A   Clear
1:55 AM -13.0 °F -25.1 °F -18.4 °F 77% 30.30 in 10.0 mi West 4.6 mph - N/A   Clear
2:15 AM -13.0 °F -27.0 °F -18.4 °F 77% 30.31 in 10.0 mi West 5.8 mph - N/A   Clear
2:35 AM -13.0 °F -28.6 °F -18.4 °F 77% 30.31 in 10.0 mi WNW 6.9 mph - N/A   Clear
2:55 AM -11.2 °F -24.8 °F -16.6 °F 77% 30.31 in 10.0 mi WNW 5.8 mph - N/A   Clear
3:15 AM -11.2 °F -27.8 °F -16.6 °F 77% 30.31 in 10.0 mi NW 8.1 mph - N/A   Clear
3:35 AM -11.2 °F -26.4 °F -16.6 °F 77% 30.30 in 10.0 mi WNW 6.9 mph - N/A   Clear
3:55 AM -13.0 °F -28.6 °F -18.4 °F 77% 30.31 in 10.0 mi WNW 6.9 mph - N/A   Clear
4:15 AM - - - N/A% 30.30 in 10.0 mi NW 8.1 mph - N/A   Clear
4:35 AM -11.2 °F -26.4 °F -16.6 °F 77% 30.31 in 10.0 mi NW 6.9 mph - N/A   Clear
4:55 AM -13.0 °F -30.0 °F -18.4 °F 77% 30.31 in 10.0 mi WNW 8.1 mph - N/A   Clear
5:15 AM -13.0 °F -27.0 °F -18.4 °F 77% 30.32 in 10.0 mi WNW 5.8 mph - N/A   Clear
5:35 AM -13.0 °F -25.1 °F -18.4 °F 77% 30.31 in 10.0 mi West 4.6 mph - N/A   Clear
5:55 AM -13.0 °F -25.1 °F -18.4 °F 77% 30.31 in 10.0 mi West 4.6 mph - N/A   Clear
6:15 AM -14.8 °F -32.2 °F -20.2 °F 77% 30.32 in 10.0 mi West 8.1 mph - N/A   Clear
6:35 AM -14.8 °F -29.1 °F -20.2 °F 77% 30.31 in 10.0 mi WNW 5.8 mph - N/A   Clear
6:55 AM -16.6 °F -34.4 °F -20.2 °F 84% 30.32 in 10.0 mi WNW 8.1 mph - N/A   Clear
7:15 AM -13.0 °F -30.0 °F -18.4 °F 77% 30.32 in 10.0 mi NW 8.1 mph - N/A   Clear
7:35 AM -13.0 °F -30.0 °F -18.4 °F 77% 30.33 in 10.0 mi NW 8.1 mph - N/A   Clear
7:55 AM -11.2 °F -29.0 °F -16.6 °F 77% 30.33 in 10.0 mi NW 9.2 mph - N/A   Clear
8:15 AM -11.2 °F -29.0 °F -18.4 °F 70% 30.34 in 10.0 mi NW 9.2 mph - N/A   Clear
8:35 AM -11.2 °F -27.8 °F -18.4 °F 70% 30.34 in 10.0 mi NW 8.1 mph - N/A   Clear
8:55 AM -11.2 °F -27.8 °F -18.4 °F 70% 30.35 in 10.0 mi NW 8.1 mph - N/A   Clear
9:15 AM -11.2 °F -29.0 °F -16.6 °F 77% 30.35 in 10.0 mi NW 9.2 mph - N/A   Clear
9:35 AM -9.4 °F -26.8 °F -16.6 °F 71% 30.35 in 10.0 mi NW 9.2 mph - N/A   Clear
9:55 AM -9.4 °F -27.9 °F -16.6 °F 71% 30.36 in 10.0 mi NW 10.4 mph - N/A   Clear
10:15 AM -7.6 °F -25.7 °F -16.6 °F 65% 30.37 in 10.0 mi NW 10.4 mph - N/A   Clear
10:35 AM -7.6 °F -26.6 °F -14.8 °F 71% 30.37 in 10.0 mi NW 11.5 mph - N/A   Clear
10:55 AM -7.6 °F -25.7 °F -13.0 °F 77% 30.37 in 10.0 mi NW 10.4 mph - N/A   Clear
11:35 AM -4.0 °F -21.2 °F -13.0 °F 65% 30.38 in 10.0 mi NW 10.4 mph - N/A   Clear
11:55 AM -4.0 °F -20.2 °F -13.0 °F 65% 30.38 in 10.0 mi NW 9.2 mph - N/A   Clear
12:15 PM -4.0 °F -20.2 °F -13.0 °F 65% 30.38 in 10.0 mi NW 9.2 mph - N/A   Clear
12:35 PM -4.0 °F -21.2 °F -13.0 °F 65% 30.38 in 10.0 mi NW 10.4 mph - N/A   Clear
12:55 PM -2.2 °F -18.9 °F -13.0 °F 60% 30.38 in 10.0 mi NW 10.4 mph - N/A   Clear
1:15 PM -2.2 °F -18.9 °F -13.0 °F 60% 30.37 in 10.0 mi NNW 10.4 mph - N/A   Clear
1:35 PM -2.2 °F -15.6 °F -11.2 °F 66% 30.36 in 10.0 mi NW 6.9 mph - N/A   Clear
1:55 PM -2.2 °F -19.9 °F -13.0 °F 60% 30.36 in 10.0 mi West 11.5 mph - N/A   Clear
2:15 PM -2.2 °F -18.0 °F -11.2 °F 66% 30.36 in 10.0 mi WNW 9.2 mph - N/A   Clear
2:35 PM -2.2 °F -19.9 °F -13.0 °F 60% 30.36 in 10.0 mi WNW 11.5 mph - N/A   Clear
2:55 PM -2.2 °F -21.5 °F -13.0 °F 60% 30.35 in 10.0 mi NW 13.8 mph 17.3 mph N/A   Clear
3:15 PM -2.2 °F -21.5 °F -13.0 °F 60% 30.36 in 10.0 mi NNW 13.8 mph - N/A   Clear
3:35 PM -2.2 °F -22.2 °F -13.0 °F 60% 30.36 in 10.0 mi NW 15.0 mph - N/A   Clear
3:55 PM -2.2 °F -19.9 °F -13.0 °F 60% 30.36 in 10.0 mi NW 11.5 mph - N/A   Clear
4:15 PM -2.2 °F -18.0 °F - N/A% 30.36 in 10.0 mi NW 9.2 mph - N/A   Clear
4:35 PM -2.2 °F -20.7 °F -11.2 °F 66% 30.37 in 10.0 mi NW 12.7 mph - N/A   Clear
4:55 PM -2.2 °F -16.8 °F -11.2 °F 66% 30.38 in 10.0 mi NW 8.1 mph - N/A   Clear
5:15 PM -2.2 °F -18.0 °F -13.0 °F 60% 30.38 in 10.0 mi NW 9.2 mph - N/A   Clear
5:35 PM -4.0 °F -17.8 °F -13.0 °F 65% 30.39 in 10.0 mi NW 6.9 mph - N/A   Clear
5:55 PM -4.0 °F -16.3 °F -13.0 °F 65% 30.39 in 10.0 mi NW 5.8 mph - N/A   Clear
6:15 PM -5.8 °F -18.4 °F -13.0 °F 71% 30.40 in 10.0 mi West 5.8 mph - N/A   Clear
6:35 PM -7.6 °F -23.4 °F -14.8 °F 71% 30.41 in 10.0 mi West 8.1 mph - N/A   Clear
6:55 PM -7.6 °F -23.4 °F -14.8 °F 71% 30.41 in 10.0 mi WNW 8.1 mph - N/A   Clear
7:15 PM -7.6 °F -23.4 °F -16.6 °F 65% 30.41 in 10.0 mi WNW 8.1 mph - N/A   Clear
7:35 PM -9.4 °F -25.6 °F -16.6 °F 71% 30.41 in 10.0 mi WNW 8.1 mph - N/A   Clear
7:55 PM -9.4 °F -24.3 °F -16.6 °F 71% 30.41 in 10.0 mi NW 6.9 mph - N/A   Clear
8:15 PM -9.4 °F -20.9 °F -16.6 °F 71% 30.41 in 10.0 mi WNW 4.6 mph - N/A   Clear
8:35 PM -11.2 °F -23.0 °F -18.4 °F 70% 30.41 in 10.0 mi WNW 4.6 mph - N/A   Clear
8:55 PM -11.2 °F -20.6 °F -18.4 °F 70% 30.40 in 10.0 mi WNW 3.5 mph - N/A   Clear
9:15 PM -13.0 °F -28.6 °F -20.2 °F 70% 30.41 in 10.0 mi WNW 6.9 mph - N/A   Clear
9:35 PM -13.0 °F -27.0 °F -20.2 °F 70% 30.41 in 10.0 mi WNW 5.8 mph - N/A   Clear
9:55 PM -13.0 °F -28.6 °F -18.4 °F 77% 30.41 in 10.0 mi WNW 6.9 mph - N/A   Clear
10:15 PM -11.2 °F -26.4 °F -16.6 °F 77% 30.41 in 10.0 mi WNW 6.9 mph - N/A   Clear
10:35 PM -13.0 °F -27.0 °F -18.4 °F 77% 30.41 in 10.0 mi WNW 5.8 mph - N/A   Clear
10:55 PM -11.2 °F -24.8 °F -18.4 °F 70% 30.42 in 10.0 mi WNW 5.8 mph - N/A   Clear
11:15 PM -11.2 °F -23.0 °F -18.4 °F 70% 30.42 in 10.0 mi WNW 4.6 mph - N/A   Clear
11:35 PM -11.2 °F -20.6 °F -18.4 °F 70% 30.42 in 10.0 mi NW 3.5 mph - N/A   Clear
11:55 PM -9.4 °F -20.9 °F -16.6 °F 71% 30.42 in 10.0 mi NW 4.6 mph - N/A   Clear